FW3345 Weather Reports


time (UTC)temp
F
wind
direction
speed
knots
gust
knots
rain 1hr
in
rain 24hr
in
rain mn
in
humidity
%
barometer
mb
20260508164459 68 360 0.0 0.0 0.01 0.38 0.09 48 1018.1
20260508163001 68 360 0.0 0.9 0.01 0.38 0.09 50 1018.2
20260508161500 67 360 0.0 0.9 0.01 0.38 0.09 52 1018.4
20260508152959 65 360 0.0 0.0 0.00 0.43 0.08 56 1018.9
20260508151458 65 360 0.0 0.9 0.01 0.43 0.08 60 1018.8
20260508150004 64 360 0.0 0.9 0.01 0.51 0.08 57 1018.6
20260508144459 63 360 0.0 0.0 0.01 0.51 0.08 69 1018.7
20260508143000 63 360 0.0 0.0 0.01 0.51 0.08 68 1018.8
20260508141459 61 360 0.0 0.0 0.00 0.50 0.07 76 1019.0
20260508134458 59 360 0.0 0.0 0.00 0.59 0.07 90 1018.9
20260508131459 56 360 0.0 0.9 0.00 0.59 0.07 93 1018.6
20260508125959 55 360 0.0 0.9 0.01 0.64 0.07 94 1018.6
20260508124459 55 360 0.0 0.0 0.01 0.64 0.07 95 1018.3
20260508123001 53 360 0.0 0.0 0.01 0.64 0.07 95 1018.2
20260508121459 53 360 0.0 0.9 0.01 0.64 0.07 95 1017.9
20260508120000 52 360 0.0 0.0 0.00 0.63 0.06 95 1017.9
20260508114459 51 360 0.0 0.0 0.01 0.63 0.06 94 1017.7
20260508113000 51 360 0.0 0.0 0.01 0.63 0.06 94 1017.2
20260508111459 50 360 0.0 0.0 0.01 0.63 0.06 94 1017.0
20260508110001 50 360 0.0 0.0 0.01 0.68 0.06 94 1016.7
20260508101458 50 360 0.0 0.0 0.01 0.67 0.05 94 1015.8
20260508100000 50 360 0.0 0.0 0.01 0.77 0.05 94 1015.6
20260508094458 50 360 0.0 0.0 0.01 0.77 0.05 94 1015.6
20260508093000 51 360 0.0 0.0 0.01 0.77 0.05 94 1015.6
20260508091458 51 360 0.0 0.0 0.00 0.76 0.04 94 1015.6
20260508090005 51 360 0.0 0.0 0.01 0.76 0.04 94 1015.5
20260508084458 52 360 0.0 0.0 0.01 0.95 0.04 94 1015.4
20260508081458 52 360 0.0 0.0 0.01 0.95 0.04 94 1015.1
20260508075959 52 360 0.0 0.0 0.00 1.16 0.03 94 1014.9
20260508074458 53 360 0.0 0.0 0.01 1.16 0.03 94 1014.9
20260508073000 53 360 0.0 0.0 0.01 1.16 0.03 94 1014.7
20260508070001 54 360 0.0 0.0 0.01 1.40 0.03 94 1014.7
20260508064457 54 360 0.0 0.0 0.01 1.39 0.02 94 1014.6
20260508062959 54 360 0.0 0.0 0.01 1.39 0.02 94 1014.7
20260508061458 55 360 0.0 0.0 0.01 1.39 0.02 94 1014.8
20260508054458 56 360 0.0 0.0 0.00 1.38 0.01 94 1015.0
20260508051458 56 360 0.0 0.0 0.01 1.38 0.01 94 1014.6
20260508045959 56 360 0.0 0.0 0.01 1.38 0.01 94 1014.5
20260508044458 56 360 0.0 0.0 0.02 1.38 0.01 93 1014.4
20260508043000 57 360 0.0 0.0 0.01 1.37 0.00 93 1014.4
20260508041458 57 360 0.0 0.0 0.01 1.37 0.00 93 1014.3
20260508040000 57 360 0.0 0.0 0.01 1.42 1.37 93 1014.0
20260508034500 57 360 0.0 0.0 0.01 1.41 1.36 93 1014.0
20260508033001 57 360 0.0 0.0 0.01 1.41 1.36 93 1013.8
20260508023001 57 360 0.0 0.9 0.01 1.62 1.35 91 1013.7
20260508021459 57 360 0.0 0.9 0.01 1.62 1.35 91 1013.4
20260508014459 58 360 0.0 2.6 0.01 1.68 1.34 90 1012.9
20260508013001 58 360 0.0 0.9 0.01 1.68 1.34 90 1012.6
20260508011500 58 360 0.0 0.0 0.02 1.68 1.34 89 1012.3
20260508010000 58 360 0.0 1.7 0.01 1.67 1.33 89 1012.1
20260508004500 58 360 0.0 1.7 0.01 1.67 1.33 88 1012.1
20260508003002 59 360 0.9 4.3 0.01 1.67 1.33 87 1011.6
20260508001500 60 360 0.0 2.6 0.01 1.66 1.32 86 1011.1
20260507234459 61 360 0.9 2.6 0.01 1.66 1.32 85 1010.1
20260507233002 63 360 0.9 5.2 0.01 1.66 1.32 83 1009.9
20260507231459 67 360 0.0 0.9 0.01 1.65 1.31 76 1008.5
20260507230001 74 360 0.0 1.7 0.01 1.65 1.31 70 1008.0
20260507224459 75 360 0.0 0.9 0.01 1.65 1.31 69 1007.5
20260507223000 77 360 0.0 0.9 0.02 1.65 1.31 66 1007.5
20260507221500 78 360 0.0 1.7 0.01 1.64 1.30 65 1007.4
20260507220008 78 360 0.0 0.9 0.02 1.64 1.30 66 1007.3
20260507214500 78 360 0.0 0.9 0.02 1.64 1.30 66 1007.3
20260507212959 78 360 0.0 0.9 0.02 1.63 1.29 67 1007.3
20260507211458 76 360 0.0 0.9 0.03 1.63 1.29 68 1007.5
20260507210001 77 360 0.0 0.9 0.02 1.62 1.28 68 1007.3
20260507204458 77 360 0.0 0.9 0.03 1.62 1.28 67 1007.3
20260507202959 78 360 0.0 0.9 0.03 1.61 1.27 67 1007.6
20260507201458 76 360 0.0 0.9 0.03 1.60 1.26 70 1007.8
20260507194501 78 360 0.0 0.9 0.03 1.59 1.25 66 1008.0
20260507193000 75 360 0.0 0.9 0.04 1.58 1.24 68 1008.3
20260507191459 76 360 0.0 0.9 0.03 1.57 1.23 70 1008.3
20260507190001 77 360 0.0 0.9 0.03 1.56 1.22 66 1008.5
20260507184459 75 360 0.0 0.9 0.04 1.56 1.22 69 1008.4
20260507181458 73 360 0.0 0.9 0.05 1.54 1.20 83 1008.3
20260507180001 71 360 0.0 1.7 0.05 1.53 1.19 85 1008.5
20260507174459 70 360 0.0 1.7 0.05 1.52 1.18 86 1008.4
20260507172959 69 360 0.0 0.9 0.05 1.50 1.16 88 1009.2
20260507171458 69 360 0.0 0.9 0.05 1.49 1.15 88 1009.2
20260507170001 69 360 0.0 0.9 0.06 1.48 1.14 91 1009.1